COSMOS 1375 DEB, 16381

Orbit data source: Space-Track

COSMOS 1375 DEB, 16381 is space debris in LEO originally from a launch on Sun, 06 Jun 1982 UTC launched from the Plesetsk Missile And Space Complex (PKMTR). Debris objects in space refer to the collection of defunct objects orbiting the Earth. Examples of debris include non-operational satellites, rocket bodies, and fragments generated from explosions, collisions, or faulty payload assembly.

Loading next visibility...
Identifier
16381, 1982-055V
Orbit
LEO
Country
Flag of CISCIS
Related business
Manufacturer
Unknown
Mission
Spacecraft
Bus & Motor
Unknown
Mass
Unknown
Launch date (UTC)
1982-06-06 (44 years ago)
Launch vehicle
Unknown
Launch site
Plesetsk Missile And Space Complex (PKMTR)
Object type
Payload
Rocket body
Debris
Shape & HBR
Unknown shape, 0.3 m
Radar Cross Section
Medium (>0.1 m² and <1 m²)

Expand to show TLE details & history
Last TLE update: 2 days ago

TLE from 2 days ago
0 COSMOS 1375 DEB
1 16381U 82055V   26171.34745029 -.00000064  00000-0  18281-4 0  9995
2 16381  65.8377  27.2578 0058192 160.1900  12.0544 13.63674115 24425
Epoch: 2026-06-20T08:20Z
TLE epoch observation values (Epoch: 2026-06-20T08:20:19.705Z)
Latitude
6.8891°
Longitude
170.52136°
Altitude
981.607 km
Speed
7.383 km/s
True Right ascension
13h 36m 40s
True Declination
6° 50' 58"
Sunlit
Object was in daylight at epoch
Visualization orbit readout
Latitude
Unknown
Longitude
Unknown
Altitude
Unknown
Speed
Unknown
Apparent Right ascension
Unknown
Apparent Declination
Unknown
Sunlit
N/A
Visualization observer readout
Local Sidereal Time
02:00:09
Azimuth
Unknown
Elevation
Unknown
Doppler factor
Unknown
Orbital elements
Apogee altitude
1,063.951 km
Perigee altitude
977.838 km
Semi-major axis
7,399.031 km
Eccentricity
0.00582
Inclination
65.8377°
RAAN
27.2578°
Arg. of periapsis
160.19°
True anomaly
12.19466°
Mean anomaly
12.0544°
Eccentric anomaly
12.12443°
Mean motion
3.41021 °/min
Orbital period
105.57 mins
BSTAR
0.000018281
Loading maneuver chart data...
Computing Atmospheric mass density...
Loading historical data...
Loading historical data...
Loading historical data...
Loading historical data...
Loading historical data...
Loading historical data...
Loading historical data...

Documentation

Showing up to 5 results
|